Location: Radomski Observatory
(40.2854°N, 79.5145°W)
Time: 14:59:22
(UTC-04:00)

Cosmos 1072 Rocket - Visible Passes

Search period start: 24 April 2017 00:00
Search period end: 04 May 2017 00:00
Orbit: 949 x 1009 km, 82.9° (Epoch: 23 April)

Date Brightness Start Highest point End Pass type
(mag) Time Alt. Az. Time Alt. Az. Time Alt. Az.
24 Apr 7.5 21:38:55 10° W 21:42:27 15° WNW 21:45:58 10° NNW visible
26 Apr 7.5 05:29:31 10° NNE 05:33:32 18° ENE 05:37:30 10° ESE visible
26 Apr 6.7 20:43:42 10° SW 20:49:14 30° WNW 20:54:45 10° NNW visible
27 Apr 7.5 21:12:06 10° WSW 21:16:02 17° WNW 21:19:58 10° NNW visible
29 Apr 7.5 05:03:30 10° NNE 05:07:06 16° ENE 05:10:40 10° ESE visible
30 Apr 6.7 05:28:38 10° NNE 05:33:55 29° ENE 05:39:07 10° SE visible
30 Apr 7.5 20:45:22 10° WSW 20:49:38 19° WNW 20:53:54 10° NNW visible
02 May 7.5 04:37:34 10° NE 04:40:40 14° ENE 04:43:45 10° E visible
03 May 6.8 05:02:28 10° NNE 05:07:32 26° ENE 05:12:32 10° SE visible
